Home > Time Zones > World Clock > Weather > Russia > Ufa > Past weeks

Flag for Russia Weather past 2 weeks in Ufa, Russia

Now
14 °F

Light snow. Overcast.


Feels Like: 5 °F
Forecast: 6 / 10 °F
Wind: 6 mph from Northwest

Location: Ufa

Current Time: Dec 26, 2014 at 9:00:06 PM

Latest Report: Dec 26, 2014 at 8:30 PM


Visibility: 2 mi

Pressure: 29.68 "Hg

Humidity: 85%

Dew point: 10 °F

Location of UfaLocation

Historic Weather in Ufa — Graph

°F

Ufa temperature yesterday

Maximum temperature yesterday: 30 °F (at 12:00 AM)
Minimum temperature yesterday: 23 °F (at 8:00 AM)
Average temperature yesterday: 26 °F

Past Weeks' High & Low Weather Summary

 TemperatureHumidityPressure
High34 °F (Dec 14, 12:00 AM)100% (Dec 15, 3:00 AM)30.45 "Hg (Dec 15, 3:00 AM)
Low7 °F (Dec 24, 3:30 AM)51% (Dec 12, 5:30 PM)29.18 "Hg (Dec 24, 11:00 PM)
Average26 °F86%29.98 "Hg
* Reported Dec 11 8:00 PM — Dec 26 8:00 PM, Ufa, Weather by CustomWeather, © 2014

Note: Actual official high and low records may vary slightly from our data, if they occured in-between our weather recording intervals... More about our weather records

Advertising

Ufa weather history for previous 24 hours

 ConditionsComfort  
Time TempWeatherWind HumidityBarometerVisibility
8:00 PM
Dec 26
16 °FOvercast.8 mph79%29.65 "HgN/A
7:30 PM16 °FOvercast.8 mph86%29.62 "HgN/A
7:00 PM16 °FLight snow. Overcast.8 mph93%29.59 "Hg3 mi
6:30 PM18 °FLight snow. Overcast.8 mph86%29.56 "HgN/A
6:00 PM18 °FLight snow. Overcast.8 mph93%29.53 "HgN/A
5:30 PM18 °FPartly sunny.3 mph93%29.50 "HgN/A
5:00 PM18 °FPartly sunny.6 mph93%29.47 "HgN/A
4:30 PM19 °FBroken clouds.3 mph86%29.45 "HgN/A
4:00 PM19 °FPartly sunny.10 mph93%29.42 "HgN/A
3:30 PM21 °FLight snow. Overcast.8 mph86%29.39 "Hg2 mi
3:00 PM21 °FLight snow. Overcast.8 mph93%29.36 "Hg2 mi
2:30 PM21 °FLight snow. Overcast.6 mph93%29.36 "Hg2 mi
2:00 PM21 °FLight snow. Overcast.8 mph93%29.33 "Hg1 mi
1:30 PM21 °FLight snow. Overcast.6 mph93%29.33 "Hg2 mi
1:00 PM21 °FLight snow. Overcast.1 mph93%29.33 "Hg2 mi
12:30 PM21 °FLight snow. Overcast.1 mph93%29.30 "Hg2 mi
12:00 PM19 °FLight snow. Mostly cloudy.No wind100%29.30 "Hg2 mi
11:30 AM21 °FLight snow. Mostly cloudy.No wind93%29.27 "Hg2 mi
11:00 AM21 °FLight snow. Overcast.1 mph93%29.27 "Hg2 mi
10:30 AM19 °FLight snow. Low clouds.3 mph100%29.27 "Hg2 mi
10:00 AM19 °FLight snow. Low clouds.3 mph93%29.27 "Hg2 mi
9:30 AM19 °FLight snow. Low clouds.3 mph93%29.27 "Hg2 mi
9:00 AM19 °FLight snow. Low clouds.6 mph93%29.27 "Hg1 mi
8:30 AM19 °FSnow. Low clouds.6 mph100%29.27 "Hg1 mi
7:30 AM19 °FSnow. Low clouds.8 mph100%29.27 "Hg1 mi
7:00 AM19 °FSnow. Low clouds.8 mph93%29.27 "Hg1 mi
6:30 AM19 °FSnow. Low clouds.8 mph93%29.27 "Hg1 mi
6:00 AM19 °FSnow. Mostly cloudy.8 mph93%29.30 "Hg1 mi
5:30 AM19 °FHeavy snow. Mostly cloudy.8 mph93%29.33 "Hg1 mi
5:00 AM19 °FHeavy snow. Mostly cloudy.8 mph93%29.33 "Hg1 mi
4:30 AM19 °FHeavy snow. Mostly cloudy.8 mph93%29.33 "Hg1 mi
4:00 AM21 °FSnow. Low clouds.8 mph86%29.36 "Hg1 mi
3:30 AM21 °FOvercast.10 mph86%29.36 "HgN/A
3:00 AM21 °FOvercast.8 mph86%29.39 "HgN/A
2:30 AM23 °FOvercast.10 mph86%29.39 "HgN/A
2:00 AM23 °FLight snow. Overcast.13 mph86%29.42 "HgN/A
1:30 AM23 °FLight snow. Overcast.10 mph86%29.42 "HgN/A
1:00 AM23 °FLight snow. Overcast.13 mph86%29.45 "HgN/A
12:30 AM23 °FLight snow. Overcast.10 mph86%29.45 "HgN/A
12:00 AM23 °FLight snow. Overcast.13 mph86%29.45 "HgN/A
11:30 PM
Dec 25
23 °FLight snow. Overcast.13 mph86%29.45 "HgN/A
11:00 PM23 °FLight snow. Overcast.13 mph86%29.45 "HgN/A
10:30 PM23 °FLight snow. Overcast.15 mph86%29.45 "HgN/A
10:00 PM23 °FLight snow. Overcast.10 mph86%29.45 "HgN/A
9:30 PM23 °FLight snow. Overcast.13 mph86%29.45 "HgN/A
9:00 PM25 °FLight snow. Overcast.6 mph80%29.45 "HgN/A
Weather by CustomWeather, © 2014

See weather overviewHow to use our weather pages